[[{"header":{"parameterUnit":"m.s-1","parameterCategory":1,"la1":30.2991,"la2":30.254,"lo1":-89.0895,"lo2":-89.0444,"dy":0.0017,"dx":0.0017,"nx":28,"ny":28,"refTime":"2024-03-13T09:00:00:Z","depth":0,"parameterNumber":2,"parameterNumberName":"U-component_of_WINDS"},"data":[0,0,0,0,0,0,0,0,0,0,0,0,0,0,0,0,0,0,0,0,0,0,0,0,0,0,0,0,0,0,0,0,0,0,0,0,0,0,0,0,0,0,0,0,0,0,0,0,0,0,0,0,0,0,0,0,0,0,-3.5105,-3.5106,0,-3.5167,-3.5168,-3.5169,-3.5133,-3.5131,-3.513,-3.5128,-3.5191,-3.5194,-3.5198,0,0,0,0,0,0,0,0,0,0,0,0,0,-3.4956,-3.4959,-3.5105,-3.5106,-3.5107,-3.5167,-3.5168,-3.5169,-3.5133,-3.5131,-3.5129,-3.5127,-3.519,-3.5194,-3.5198,0,0,0,0,0,0,0,0,0,0,0,0,0,-3.502,-3.496,-3.5105,-3.5096,-3.5096,-3.5167,-3.5168,-3.5169,-3.5134,-3.5131,-3.5129,-3.5126,-3.5189,-3.5194,-3.5198,-3.5281,0,0,-3.5214,-3.5216,0,0,0,0,0,0,0,0,-3.5016,-3.5025,-3.5097,-3.5097,-3.5097,-3.514,-3.5139,-3.5207,-3.5134,-3.5119,-3.5128,-3.5125,-3.5176,-3.5182,-3.5199,-3.5284,-3.5287,-3.5214,-3.5217,-3.5219,-3.5221,0,0,0,0,0,0,0,-3.5012,-3.5023,-3.513,-3.5098,-3.5098,-3.5089,-3.5096,-3.5151,-3.5162,-3.5121,-3.5118,-3.5126,-3.5176,-3.5195,-3.52,-3.5288,-3.5214,-3.5218,-3.5221,-3.5223,-3.5445,-3.5447,0,0,0,0,0,0,-3.5008,-3.5019,-3.5128,-3.5131,-3.5049,-3.5094,-3.5101,-3.5129,-3.5161,-3.5163,-3.5128,-3.5124,-3.5187,-3.5195,-3.5203,-3.5301,-3.5219,-3.5224,-3.5227,-3.5442,-3.5445,-3.5448,0,0,0,0,0,0,-3.5005,-3.5018,-3.5125,-3.5075,-3.5088,-3.51,-3.5131,-3.5131,-3.515,-3.5167,-3.5168,-3.5146,-3.5186,-3.5196,-3.5262,-3.5303,-3.5226,-3.523,-3.5438,-3.5443,-3.5447,-3.5499,0,0,0,0,0,0,-3.5001,-3.5017,-3.5048,-3.5076,-3.5091,-3.5183,-3.5133,-3.5134,-3.5159,-3.5154,-3.5183,-3.5186,-3.5184,-3.5255,-3.5267,-3.5308,-3.5234,-3.5435,-3.544,-3.5445,-3.5494,-3.5505,-3.5515,0,0,0,0,0,-3.4996,-3.5061,-3.505,-3.5063,-3.513,-3.5186,-3.5194,-3.5191,-3.5162,-3.5194,-3.5205,-3.5185,-3.5297,-3.5262,-3.5275,-3.5319,-3.5432,-3.5439,-3.5445,-3.5489,-3.5503,-3.5514,0,0,0,0,0,0,-3.5037,-3.5064,-3.5053,-3.5128,-3.5155,-3.518,-3.5219,-3.5206,-3.5241,-3.5235,-3.523,-3.5237,-3.5306,-3.532,-3.528,-3.5401,-3.536,-3.537,-3.5389,-3.5402,-3.5412,-3.5406,-3.5238,0,0,0,0,0,-3.5055,-3.5098,-3.512,-3.5184,-3.5198,-3.5207,-3.5231,-3.5227,-3.5254,-3.5265,-3.5281,-3.5309,-3.535,-3.5377,-3.5416,-3.5497,-3.5503,-3.5534,-3.5544,-3.5552,-3.556,-3.5603,-3.5617,-3.547,-3.547,-3.547,0,0,-3.5092,-3.5113,-3.514,-3.5193,-3.5213,-3.5258,-3.5216,-3.5265,-3.5299,-3.5273,-3.5336,-3.5349,-3.538,-3.5454,-3.5487,-3.5467,-3.5602,-3.5561,-3.5567,-3.557,-3.5611,-3.5625,-3.5638,-3.5474,-3.5473,-3.5473,0,0,-3.5183,-3.5203,-3.5259,-3.528,-3.5312,-3.5318,-3.5331,-3.5359,-3.5366,-3.543,-3.5412,-3.5452,-3.5524,-3.5546,-3.5567,-3.5669,-3.5652,-3.5682,-3.5734,-3.5777,-3.5788,-3.5799,-3.5834,-3.5847,-3.569,-3.569,-3.569,0,-3.5225,-3.5291,-3.5289,-3.534,-3.5364,-3.5344,-3.5401,-3.5422,-3.5465,-3.5482,-3.5459,-3.5549,-3.5568,-3.5647,-3.5672,-3.569,-3.5706,-3.5677,-3.5787,-3.5797,-3.5807,-3.584,-3.5854,-3.5694,-3.5693,-3.5693,-3.5693,0,-3.5341,-3.5388,-3.543,-3.5472,-3.5501,-3.5555,-3.5561,-3.5591,-3.5585,-3.5593,-3.5659,-3.5682,-3.5725,-3.5744,-3.5739,-3.5823,-3.5809,-3.5787,-3.5745,-3.5824,-3.5856,-3.5869,-3.5698,-3.5697,-3.5696,-3.5695,0,0,-3.5456,-3.5498,-3.5513,-3.5533,-3.5567,-3.5604,-3.5657,-3.57,-3.5726,-3.5757,-3.5801,-3.5864,-3.5844,-3.5867,-3.5865,-3.5903,-3.5981,-3.5876,-3.5877,-3.5893,-3.6075,-3.6089,-3.6104,-3.5972,-3.5974,-3.5976,-3.6071,0,-3.5547,-3.564,-3.5641,-3.5726,-3.577,-3.5753,-3.5799,-3.5826,-3.5836,-3.5874,-3.5886,-3.5929,-3.59,-3.5915,-3.5951,-3.5964,-3.6017,-3.5957,-3.6012,-3.6014,-3.6002,-3.6121,-3.6136,-3.6225,-3.6084,-3.6086,-3.6088,0,-3.5665,-3.5701,-3.5791,-3.582,-3.5839,-3.588,-3.592,-3.5958,-3.5988,-3.5993,-3.6021,-3.6013,-3.6068,-3.6027,-3.6102,-3.6061,-3.6084,-3.6094,-3.6098,-3.61,-3.6053,-3.6125,-3.6254,-3.6266,-3.6107,-3.6106,-3.6104,0,-3.5739,-3.5809,-3.5872,-3.5889,-3.5926,-3.5956,-3.5972,-3.6,-3.6026,-3.6062,-3.6079,-3.6121,-3.6143,-3.6176,-3.6179,-3.6149,-3.6255,-3.6214,-3.626,-3.626,-3.628,-3.6279,-3.6412,-3.6299,-3.6299,-3.6299,-3.6298,0,-3.5839,-3.5894,-3.5905,-3.5944,-3.6006,-3.6007,-3.6068,-3.6082,-3.6108,-3.6149,-3.6138,-3.6177,-3.6181,-3.6221,-3.6225,-3.6287,-3.6297,-3.6302,-3.6302,-3.6302,-3.6301,-3.6315,-3.6308,-3.6302,-3.6302,-3.6301,-3.63,0,-3.5929,-3.5939,-3.6007,-3.6036,-3.6045,-3.609,-3.6115,-3.6152,-3.6162,-3.6214,-3.6227,-3.6242,-3.6289,-3.6297,-3.6353,-3.6355,-3.6428,-3.6423,-3.6418,-3.6416,-3.6461,-3.6456,-3.6606,-3.6625,-3.6502,-3.6503,-3.6504,0,-3.5992,-3.6034,-3.6069,-3.6096,-3.6114,-3.6158,-3.6185,-3.6189,-3.6217,-3.6256,-3.6289,-3.6335,-3.6371,-3.6448,-3.6464,-3.6507,-3.6501,-3.6551,-3.6507,-3.6506,-3.65,-3.6496,-3.65,-3.6558,-3.656,-3.6561,-3.6562,0,-3.6101,-3.6104,-3.6143,-3.6185,-3.6218,-3.6251,-3.6283,-3.6306,-3.6314,-3.6347,-3.6395,-3.6424,-3.6481,-3.6527,-3.657,-3.6587,-3.6576,-3.6576,-3.6588,-3.6587,-3.6582,-3.6584,-3.6438,-3.6572,-3.6571,-3.657,-3.6569,-3.6569,-3.6178,-3.6215,-3.6245,-3.629,-3.6314,-3.6344,-3.638,-3.6396,-3.6436,-3.6483,-3.6483,-3.6536,-3.6567,-3.6623,-3.6644,-3.6685,-3.6669,-3.6688,-3.6692,-3.6696,-3.6699,-3.6577,-3.6693,-3.6693,-3.6693,-3.6693,-3.6693,0,-3.6285,-3.6304,-3.6346,-3.639,-3.6426,-3.6414,-3.6448,-3.6478,-3.6525,-3.6555,-3.6592,-3.6648,-3.6693,-3.6714,-3.6758,-3.6788,-3.6784,-3.6799,-3.6795,-3.68,-3.6712,-3.6696,-3.6801,-3.6801,-3.6801,-3.6801,-3.6801,-3.6801,-3.6344,-3.6406,-3.6413,-3.6487,-3.6507,-3.6558,-3.6579,-3.6607,-3.6631,-3.6694,-3.6731,-3.6745,-3.6771,-3.6818,-3.6859,-3.6864,-3.688,-3.6897,-3.69,-3.6817,-3.6806,-3.6795,-3.678,-3.6902,-3.6902,-3.6984,-3.6985,-3.6985]},{"header":{"parameterUnit":"m.s-1","parameterCategory":1,"la1":30.2991,"la2":30.254,"lo1":-89.0895,"lo2":-89.0444,"dy":0.0017,"dx":0.0017,"nx":28,"ny":28,"refTime":"2024-03-13T09:00:00:Z","depth":0,"parameterNumber":3,"parameterNumberName":"V-component_of_WINDS"},"data":[0,0,0,0,0,0,0,0,0,0,0,0,0,0,0,0,0,0,0,0,0,0,0,0,0,0,0,0,0,0,0,0,0,0,0,0,0,0,0,0,0,0,0,0,0,0,0,0,0,0,0,0,0,0,0,0,0,0,0.9332,0.9332,0,0.9356,0.9357,0.9357,0.9354,0.9354,0.9354,0.9353,0.9377,0.9378,0.9379,0,0,0,0,0,0,0,0,0,0,0,0,0,0.9284,0.9285,0.9332,0.9332,0.9333,0.9356,0.9357,0.9357,0.9354,0.9354,0.9354,0.9353,0.9376,0.9378,0.9379,0,0,0,0,0,0,0,0,0,0,0,0,0,0.9306,0.9285,0.9332,0.9334,0.9335,0.9356,0.9357,0.9357,0.9355,0.9354,0.9353,0.9353,0.9376,0.9377,0.9379,0.9399,0,0,0.9383,0.9384,0,0,0,0,0,0,0,0,0.9305,0.9308,0.9334,0.9334,0.9335,0.9352,0.9348,0.9371,0.9355,0.9347,0.9353,0.9353,0.9369,0.9371,0.9377,0.94,0.9401,0.9383,0.9384,0.9385,0.9385,0,0,0,0,0,0,0,0.9303,0.9307,0.9342,0.9334,0.9335,0.9334,0.9337,0.9353,0.9361,0.9348,0.9347,0.935,0.9369,0.9375,0.9377,0.9402,0.9383,0.9385,0.9386,0.9386,0.9446,0.9447,0,0,0,0,0,0,0.9301,0.9306,0.9341,0.9342,0.9318,0.9336,0.9338,0.9347,0.936,0.9362,0.9351,0.935,0.9373,0.9375,0.9378,0.9404,0.9385,0.9386,0.9387,0.9445,0.9446,0.9447,0,0,0,0,0,0,0.93,0.9304,0.934,0.9324,0.9328,0.9337,0.9346,0.9348,0.9354,0.9363,0.9364,0.9356,0.9373,0.9376,0.9395,0.9405,0.9387,0.9388,0.9444,0.9445,0.9446,0.9456,0,0,0,0,0,0,0.9299,0.9304,0.9312,0.9324,0.9329,0.9356,0.9347,0.9348,0.9356,0.9356,0.9368,0.9369,0.9372,0.9392,0.9396,0.9407,0.9389,0.9443,0.9445,0.9446,0.9455,0.9457,0.9459,0,0,0,0,0,0.9297,0.9312,0.9312,0.9316,0.9339,0.9356,0.9359,0.9363,0.9357,0.9365,0.9372,0.9369,0.9403,0.9394,0.9398,0.9409,0.9443,0.9444,0.9446,0.9454,0.9457,0.9459,0,0,0,0,0,0,0.9299,0.9314,0.9314,0.9333,0.9344,0.9356,0.9366,0.9366,0.9377,0.9376,0.938,0.9383,0.9402,0.9408,0.9397,0.9431,0.9422,0.9425,0.9427,0.943,0.9432,0.943,0.9391,0,0,0,0,0,0.9302,0.9316,0.9327,0.9344,0.9349,0.9357,0.9364,0.9367,0.9377,0.9382,0.9389,0.94,0.9413,0.9422,0.9434,0.9456,0.9459,0.9466,0.9468,0.947,0.9472,0.9485,0.9489,0.9452,0.9452,0.9452,0,0,0.9308,0.9318,0.9326,0.9345,0.9353,0.9367,0.936,0.9375,0.9386,0.9384,0.9402,0.9409,0.9421,0.9442,0.9451,0.9447,0.9483,0.9472,0.9473,0.9474,0.9487,0.9491,0.9494,0.9453,0.9453,0.9453,0,0,0.9326,0.9334,0.935,0.9359,0.9372,0.9378,0.9382,0.9395,0.9399,0.9418,0.9418,0.9431,0.9453,0.9462,0.947,0.9495,0.9494,0.9499,0.9511,0.9524,0.9527,0.953,0.954,0.9543,0.9501,0.9501,0.9501,0,0.9331,0.9353,0.9357,0.9373,0.9382,0.9383,0.9399,0.9407,0.9424,0.943,0.9426,0.9456,0.9464,0.9488,0.9494,0.95,0.9505,0.9497,0.9526,0.9529,0.9531,0.9541,0.9545,0.9502,0.9502,0.9502,0.9502,0,0.9359,0.9374,0.9385,0.9403,0.9413,0.9429,0.9437,0.9447,0.9449,0.9455,0.9475,0.9486,0.9501,0.9507,0.9508,0.9532,0.9529,0.9525,0.9517,0.9536,0.9545,0.9548,0.9503,0.9502,0.9502,0.9502,0,0,0.9377,0.94,0.9403,0.9413,0.9429,0.9441,0.9457,0.9474,0.9483,0.9495,0.951,0.953,0.9528,0.9536,0.9539,0.9551,0.9572,0.9546,0.9546,0.9551,0.96,0.9603,0.9608,0.9571,0.9572,0.9573,0.96,0,0.9397,0.9427,0.9434,0.9459,0.9474,0.9477,0.9491,0.9503,0.951,0.9524,0.9532,0.9547,0.9541,0.9547,0.9559,0.9567,0.9582,0.9565,0.9585,0.9586,0.9583,0.9612,0.9615,0.964,0.9603,0.9604,0.9604,0,0.9424,0.9439,0.9467,0.9484,0.949,0.9503,0.952,0.9533,0.9548,0.9552,0.9563,0.9566,0.9584,0.9575,0.9601,0.9589,0.9598,0.9604,0.9605,0.9607,0.9596,0.9616,0.9648,0.9652,0.961,0.9609,0.9609,0,0.9436,0.9463,0.9484,0.9491,0.9511,0.952,0.9529,0.9543,0.9553,0.9568,0.9575,0.9592,0.9601,0.9614,0.9621,0.9613,0.9647,0.9638,0.9651,0.9651,0.9658,0.9657,0.9692,0.9663,0.9663,0.9663,0.9663,0,0.9458,0.9475,0.9489,0.9502,0.9522,0.953,0.9549,0.9558,0.9571,0.9586,0.9588,0.9602,0.9611,0.9626,0.9632,0.9653,0.9657,0.9662,0.9663,0.9662,0.9661,0.9667,0.9666,0.9664,0.9664,0.9664,0.9663,0,0.9474,0.9484,0.9507,0.9525,0.953,0.9544,0.956,0.9573,0.9581,0.96,0.9604,0.9617,0.9635,0.9644,0.9666,0.967,0.9695,0.9695,0.9691,0.9691,0.9705,0.9704,0.9745,0.9752,0.9718,0.9718,0.9718,0,0.9487,0.9501,0.9521,0.9532,0.9542,0.9559,0.957,0.9579,0.959,0.9609,0.962,0.9639,0.9655,0.9685,0.9696,0.9714,0.9714,0.9728,0.9717,0.9716,0.9716,0.9715,0.9717,0.973,0.973,0.973,0.973,0,0.9511,0.9516,0.9532,0.9552,0.9565,0.958,0.9595,0.9604,0.9615,0.9628,0.9648,0.9661,0.9685,0.9704,0.9723,0.9732,0.9734,0.9734,0.9738,0.9737,0.9735,0.9737,0.9697,0.9733,0.9733,0.9732,0.9732,0.9732,0.9527,0.954,0.9557,0.9576,0.9589,0.9603,0.9617,0.9628,0.9644,0.9666,0.967,0.9691,0.9708,0.9734,0.9744,0.9761,0.9758,0.9763,0.9765,0.9767,0.9768,0.9732,0.9764,0.9764,0.9764,0.9764,0.9764,0,0.9551,0.9563,0.958,0.9602,0.9618,0.9619,0.9636,0.9649,0.9668,0.9683,0.9699,0.9723,0.9743,0.9756,0.9776,0.9788,0.9789,0.9793,0.9792,0.9794,0.9769,0.9764,0.9791,0.9791,0.9791,0.9791,0.9791,0.9791,0.9565,0.9589,0.9596,0.9626,0.9638,0.966,0.967,0.9684,0.9696,0.9723,0.974,0.9749,0.9764,0.9786,0.9804,0.9807,0.9815,0.9819,0.9823,0.9799,0.9796,0.9793,0.9788,0.982,0.982,0.9847,0.9847,0.9847]}]]